Pottstown, PA

11:06 AM EST on February 20, 2018 (GMT -0500)
Pottstown Limerick

Weather History for KPTW - November, 2012

Change the Weather History Date:

Tuesday, November 27, 2012

  Actual Average (KRDG) Record (KRDG)
Temperature  
Mean Temperature 34 °F -  
Max Temperature 35 °F 47 °F 65 °F (2011)
Min Temperature 33 °F 31 °F 14 °F (1932)
Degree Days  
Heating Degree Days 31    
Moisture  
Dew Point 32 °F    
Average Humidity 91    
Maximum Humidity 100    
Minimum Humidity 70    
Precipitation  
Precipitation 0.50 in - - ()
Sea Level Pressure  
Sea Level Pressure 30.24 in    
Wind  
Wind Speed 2 mph (NNE)    
Max Wind Speed 7 mph    
Max Gust Speed -    
Visibility 5 miles    
Events Fog , Rain , Snow    
Averages and records for this station are not official NWS values.
T = Trace of Precipitation, MM = Missing Value Source: NWS Daily Summary

Daily Weather History Graph

Daily Weather History Graph

Search for Another Location

Airport or City:

Trip Planner

Search our weather history database for the weather conditions in past years. The results will help you decide how hot, cold, wet, or windy it might be!

Date:

Astronomy

Nov. 27, 2012 Rise Set
Actual Time 7:01 AM EST 4:37 PM EST
Civil Twilight 6:31 AM EST 5:07 PM EST
Nautical Twilight 5:58 AM EST 5:41 PM EST
Astronomical Twilight 5:25 AM EST 6:14 PM EST
Moon 4:07 PM EST (11/27) 6:04 AM EST (11/27)
Length of Visible Light 10h 35m
Length of Day
9h 36m
Waxing Gibbous, 99% of the Moon is Illuminated
Nov 27
Waxing Gibbous
Nov 28
Full
Dec 6
Last Quarter
Dec 13
New
Dec 20
First Quarter

Hourly Weather History & Observations

Time (EST) Temp. Windchill Dew Point Humidity Pressure Visibility Wind Dir Wind Speed Gust Speed Precip Events Conditions
12:54 AM 33.1 °F - 25.0 °F 72% 30.26 in 10.0 mi Calm Calm - N/A   Overcast
1:54 AM 34.0 °F 29.8 °F 25.0 °F 70% 30.25 in 10.0 mi East 4.6 mph - N/A   Overcast
2:54 AM 35.1 °F - 26.1 °F 70% 30.25 in 10.0 mi Calm Calm - N/A   Overcast
3:54 AM 34.0 °F - 28.0 °F 79% 30.24 in 10.0 mi Calm Calm - N/A   Overcast
4:54 AM 35.1 °F - 27.0 °F 72% 30.25 in 10.0 mi Calm Calm - N/A   Overcast
5:54 AM 35.1 °F - 28.0 °F 76% 30.26 in 9.0 mi Calm Calm - 0.00 in Rain Light Rain
6:24 AM 35.6 °F 29.9 °F 28.4 °F 75% 30.26 in 8.0 mi NE 6.9 mph - 0.00 in Rain Light Rain
6:52 AM 33.8 °F - 30.2 °F 87% 30.27 in 1.8 mi Calm Calm - 0.02 in Snow Light Snow
6:54 AM 34.0 °F - 30.9 °F 89% 30.27 in 1.5 mi Calm Calm - 0.02 in Snow Light Snow
7:07 AM 33.8 °F 30.8 °F 30.2 °F 87% 30.27 in 0.8 mi ENE 3.5 mph - 0.02 in Snow Light Snow
7:28 AM 33.8 °F - 32.0 °F 93% 30.28 in 0.5 mi Calm Calm - 0.05 in Fog , Snow Snow
7:54 AM 33.1 °F 27.7 °F 32.0 °F 96% 30.27 in 0.2 mi NE 5.8 mph - 0.09 in Fog , Snow Heavy Snow
8:00 AM 33.8 °F 28.6 °F 32.0 °F 93% 30.27 in 0.5 mi NE 5.8 mph - 0.00 in Fog , Snow Snow
8:50 AM 33.8 °F 28.6 °F 32.0 °F 93% 30.25 in 0.5 mi NE 5.8 mph - 0.06 in Fog , Snow Snow
8:54 AM 33.1 °F 26.9 °F 32.0 °F 96% 30.25 in 0.5 mi NE 6.9 mph - 0.06 in Fog , Snow Snow
9:16 AM 33.8 °F 27.7 °F 32.0 °F 93% 30.25 in 0.5 mi NNE 6.9 mph - 0.02 in Fog , Snow Snow
9:54 AM 33.1 °F 30.0 °F 32.0 °F 96% 30.27 in 0.5 mi NE 3.5 mph - 0.07 in Fog , Snow Snow
10:54 AM 33.1 °F - 33.1 °F 100% 30.27 in 0.5 mi Calm Calm - 0.10 in Fog , Snow Snow
11:54 AM 34.0 °F 29.8 °F 32.0 °F 92% 30.24 in 1.0 mi NNE 4.6 mph - 0.06 in Snow Light Snow
12:13 PM 33.8 °F 29.6 °F 32.0 °F 93% 30.23 in 1.2 mi NE 4.6 mph - 0.01 in Snow Light Snow
12:44 PM 33.8 °F 29.6 °F 32.0 °F 93% 30.22 in 2.5 mi NE 4.6 mph - 0.04 in Rain Light Rain
12:50 PM 33.8 °F 29.6 °F 33.8 °F 100% 30.22 in 3.0 mi NNE 4.6 mph - 0.04 in Rain Light Rain
12:51 PM 34.0 °F 29.8 °F 33.1 °F 96% 30.22 in 3.0 mi NNE 4.6 mph - 0.04 in Rain Light Rain
1:43 PM 33.8 °F - 33.8 °F 100% 30.22 in 3.0 mi Calm Calm - 0.04 in Rain Light Rain
1:52 PM 33.8 °F 30.8 °F 33.8 °F 100% 30.21 in 4.0 mi North 3.5 mph - 0.04 in Rain Light Rain
1:54 PM 34.0 °F 31.0 °F 33.1 °F 96% 30.21 in 4.0 mi North 3.5 mph - 0.04 in Snow Light Snow
2:18 PM 35.6 °F - 33.8 °F 93% 30.21 in 2.5 mi Calm Calm - 0.01 in Snow Light Snow
2:40 PM 33.8 °F 30.8 °F 33.8 °F 100% 30.21 in 3.0 mi North 3.5 mph - 0.02 in Snow Light Snow
2:54 PM 34.0 °F - 33.1 °F 96% 30.21 in 4.0 mi Calm Calm - 0.02 in Snow Light Snow
3:11 PM 33.8 °F 29.6 °F 33.8 °F 100% 30.20 in 5.0 mi NNE 4.6 mph - 0.00 in   Overcast
3:21 PM 33.8 °F 30.8 °F 33.8 °F 100% 30.21 in 8.0 mi North 3.5 mph - 0.00 in   Overcast
3:42 PM 33.8 °F 28.6 °F 33.8 °F 100% 30.21 in 9.0 mi North 5.8 mph - 0.00 in   Overcast
3:54 PM 34.0 °F 29.8 °F 33.1 °F 96% 30.21 in 8.0 mi North 4.6 mph - 0.00 in   Overcast
4:28 PM 35.6 °F 31.7 °F 33.8 °F 93% 30.22 in 10.0 mi NNW 4.6 mph - N/A   Overcast
4:54 PM 35.1 °F 32.2 °F 33.1 °F 92% 30.22 in 10.0 mi NW 3.5 mph - N/A   Overcast
5:07 PM 35.6 °F 32.8 °F 33.8 °F 93% 30.22 in 10.0 mi WNW 3.5 mph - N/A   Overcast
5:54 PM 35.1 °F 32.2 °F 33.1 °F 92% 30.22 in 9.0 mi NNW 3.5 mph - N/A   Overcast
6:01 PM 35.6 °F 32.8 °F 33.8 °F 93% 30.21 in 9.0 mi NW 3.5 mph - N/A   Overcast
6:11 PM 35.6 °F - 33.8 °F 93% 30.22 in 9.0 mi Calm Calm - N/A   Overcast
6:44 PM 35.6 °F 32.8 °F 33.8 °F 93% 30.22 in 7.0 mi WNW 3.5 mph - N/A   Overcast
6:54 PM 35.1 °F - 33.1 °F 92% 30.23 in 6.0 mi Calm Calm - N/A   Overcast
7:54 PM 35.1 °F 32.2 °F 33.1 °F 92% 30.24 in 8.0 mi NW 3.5 mph - N/A   Overcast
8:54 PM 35.1 °F - 34.0 °F 96% 30.24 in 5.0 mi Calm Calm - N/A   Overcast
9:54 PM 34.0 °F - 33.1 °F 96% 30.25 in 4.0 mi Calm Calm - N/A   Overcast
10:54 PM 34.0 °F - 33.1 °F 96% 30.26 in 4.0 mi Calm Calm - N/A   Overcast
11:54 PM 34.0 °F - 33.1 °F 96% 30.24 in 5.0 mi Calm Calm - N/A   Overcast